FENGYUN 1C DEB, 36238

Orbit data source: Space-Track

FENGYUN 1C DEB, 36238 is space debris in SSO originally from a launch on Mon, 10 May 1999 UTC launched from the Taiyaun Space Center, China (TSC). Fengyun 1C debris stems from the Chinese weather satellite Fengyun-1C, which was intentionally destroyed by a Chinese anti-satellite missile in 2007. This event dramatically increased the amount of space debris, with thousands of trackable fragments posing hazards to satellites and human spaceflight. The Fengyun 1C debris cloud has become a focal point in discussions about space sustainability and the need for international regulations to prevent the creation of new debris.

Loading next visibility...
Identifier
36238, 1999-025DVP
Orbit
SSO
Country
Flag of CNCN / PRC
Related business
Manufacturer
Unknown
Mission
Spacecraft
Bus & Motor
Unknown
Mass
Unknown
Launch date (UTC)
1999-05-10 (27 years ago)
Launch vehicle
Unknown
Launch site
Taiyaun Space Center, China (TSC)
Object type
Payload
Rocket body
Debris
Shape & HBR
Unknown shape, 0.1 m
Radar Cross Section
Small (<0.1 m²)

Expand to show TLE details & history
Last TLE update: 2 days ago

TLE from 2 days ago
0 FENGYUN 1C DEB
1 36238U 99025DVP 26256.62608952  .00000056  00000-0  53276-4 0  9994
2 36238  98.6822 225.0772 0020387 215.6257 144.3556 14.12461149908987
Epoch: 2026-09-13T15:01Z
TLE epoch observation values (Epoch: 2026-09-13T15:01:34.134Z)
Latitude
0.00001°
Longitude
7.06693°
Altitude
865.856 km
Speed
7.413 km/s
True Right ascension
15h 00m 18s
True Declination
0° 00' 00"
Sunlit
Object was in daylight at epoch
Visualization orbit readout
Latitude
Unknown
Longitude
Unknown
Altitude
Unknown
Speed
Unknown
Apparent Right ascension
Unknown
Apparent Declination
Unknown
Sunlit
N/A
Visualization observer readout
Local Sidereal Time
03:44:27
Azimuth
Unknown
Elevation
Unknown
Doppler factor
Unknown
Orbital elements
Apogee altitude
862.861 km
Perigee altitude
833.397 km
Semi-major axis
7,226.266 km
Eccentricity
0.00204
Inclination
98.6822°
RAAN
225.0772°
Arg. of periapsis
215.6257°
True anomaly
144.49146°
Mean anomaly
144.3556°
Eccentric anomaly
144.42356°
Mean motion
3.53323 °/min
Orbital period
101.89 mins
BSTAR
0.000053276
Loading maneuver chart data...
Computing Atmospheric mass density...

Documentation

Showing up to 5 results
|